CAPE
0 0 0 0 0 0 0 0 0 0 0 0 0 0 0 0 0 0 0 0 0 0 0 0 0 0 0 0 0 0 0 0 0 0 0 0 0 0 0 0 0 0 0
0 0 0 0 0 0 1 0 0 0 0 0 0 0 0 0 0 0 0 0 0 0 0 0 0 0 0 0 0 0 0 0 0 0 0 0 0 0 0 0 0 0 0
0 0 0 0 0 0 8 7 0 0 0 0 0 0 0 0 0 0 0 0 0 0 0 0 0 0 0 0 0 0 0 0 0 0 0 0 0 0 0 0 0 0 0
18 3 0 1 2 7 2 6 4 0 2 5 0 0 0 0 0 0 0 0 0 0 0 0 0 0 0 0 0 0 0 0 0 0 0 0 0 0 0 0 0 0 0
111 110 65 38 48 11 18 35 7 1 1 0 0 0 0 0 0 0 0 0 0 0 0 0 0 0 0 0 0 0 0 0 0 0 0 0 0 0 0 0 0 0 0
98 105 70 0 0 0 0 0 0 0 0 1 0 0 0 1 0 0 0 0 0 0 0 0 0 0 0 0 0 0 0 0 0 0 0 0 0 0 0 0 0 0 0
65 6 0 0 0 0 0 0 1 0 0 0 0 1 1 0 0 0 0 0 0 0 0 0 0 0 0 0 0 0 0 0 0 0 0 0 0 0 0 0 0 0 0
41 0 0 0 0 0 0 0 0 0 0 0 0 0 0 0 0 0 0 0 0 0 0 0 0 0 0 0 0 0 0 0 0 0 0 0 0 0 0 0 0 0 0
0 0 0 1 2 1 0 0 0 0 0 0 0 0 0 0 0 0 0 0 0 0 0 0 0 0 0 0 0 0 0 0 0 0 0 0 0 0 0 0 2 5 5
0 0 0 0 0 0 0 0 0 0 0 0 0 0 0 0 0 0 0 0 0 0 0 0 0 0 0 0 0 0 0 0 0 0 0 0 0 0 0 0 0 0 0
0 0 0 0 0 0 0 0 0 0 0 0 0 0 0 0 0 0 0 0 0 0 0 0 0 0 0 0 0 0 0 0 0 0 0 0 0 0 0 0 0 0 6
0 0 0 0 0 0 0 0 0 0 0 0 0 0 0 0 0 0 0 0 0 0 0 0 0 0 0 0 0 0 0 0 0 0 0 0 0 0 1 0 0 0 0
0 0 0 0 0 0 0 0 0 0 0 0 0 0 0 0 0 0 0 0 0 0 0 0 0 0 0 0 0 0 0 0 0 0 0 0 0 1 1 0 0 0 0
0 0 0 0 0 0 0 0 0 0 0 0 0 0 0 0 0 0 0 0 0 0 0 0 0 0 0 0 0 0 0 0 0 0 0 0 2 1 0 0 0 1 3
0 0 0 0 0 0 0 0 0 0 0 0 0 0 0 0 0 0 0 0 0 0 0 0 0 0 0 0 0 0 0 0 1 1 0 1 1 1 1 1 3 3 1
0 0 0 0 0 0 0 0 0 0 0 0 0 0 0 0 0 0 0 0 0 0 0 0 0 0 0 0 0 0 0 0 0 1 0 1 0 0 1 0 2 0 1
0 0 0 0 0 0 0 0 0 0 0 0 0 0 0 0 0 0 0 0 0 0 0 0 0 0 0 0 0 0 0 0 0 0 0 0 0 0 0 1 1 2 2
0 0 0 0 0 0 0 0 0 0 1 2 2 0 0 0 0 0 0 0 0 0 0 0 0 0 0 0 0 0 0 0 0 0 0 0 0 0 0 1 1 0 1
0 0 0 0 0 0 0 0 0 0 0 0 1 1 1 2 2 4 1 0 0 0 0 0 0 0 0 0 0 0 0 0 0 0 0 0 0 0 0 0 0 0 0
0 0 0 0 0 0 0 0 1 1 1 0 0 0 0 0 0 0 0 0 0 0 0 0 0 0 0 0 0 0 0 0 0 0 0 0 0 0 0 0 0 0 1
0 0 0 0 0 0 0 0 0 0 0 0 0 0 0 0 0 0 0 0 0 0 0 0 0 0 0 0 0 0 0 0 0 0 0 0 0 0 0 0 0 0 3
0 0 0 0 0 0 1 0 0 0 0 0 0 0 0 0 0 0 0 0 0 0 0 0 0 0 0 0 0 0 0 0 0 0 0 0 0 0 0 0 0 0 0
0 0 0 0 0 0 0 0 0 0 0 0 0 0 0 0 0 0 0 0 0 0 0 0 0 0 0 0 0 0 0 0 0 0 0 0 0 0 0 0 0 0 0
0 0 1 0 0 0 0 0 0 0 0 0 0 0 0 0 0 0 0 0 0 0 0 0 0 0 0 0 0 0 0 0 0 0 0 0 0 0 0 0 0 0 1
0 0 0 0 0 0 0 0 0 0 0 0 0 0 0 0 0 0 0 0 0 0 0 0 0 0 0 0 0 0 0 0 0 0 0 0 0 0 0 0 0 1 0
0 0 0 0 0 0 0 0 0 0 0 0 0 0 0 0 0 0 0 0 0 0 0 0 0 0 0 0 0 5 0 0 0 0 0 0 0 0 0 0 0 0 0
CIN
0 0 0 0 0 0 0 0 0 0 0 0 0 0 0 0 0 0 0 0 0 0 0 0 0 0 0 0 0 0 0 0 0 0 0 0 0 0 0 0 0 0 0
0 0 0 0 0 0 -102 -1 0 0 0 0 0 0 0 0 0 0 0 0 0 0 0 0 0 0 0 0 0 0 0 0 0 0 0 0 0 0 0 0 0 0 0
0 0 0 0 0 -67 -279 -291 0 0 0 0 -22 0 0 0 0 0 0 0 0 0 0 0 0 0 0 0 0 0 0 0 0 0 0 0 0 0 0 0 0 0 0
-579 -253 -133 -191 -169 -299 -199 -209 -218 0 -180 -208 0 0 0 0 0 0 0 0 0 0 0 0 0 0 0 0 0 0 0 0 0 0 0 0 0 0 0 0 0 0 0
-482 -429 -418 -356 -268 -259 -230 -225 -222 -59 -67 0 0 0 0 0 0 0 0 0 0 0 0 0 0 0 0 0 0 0 0 0 0 0 0 0 0 0 0 0 0 0 0
-502 -476 -405 0 0 0 0 0 0 0 0 0 0 0 0 0 0 0 0 0 0 0 0 0 0 0 0 0 0 0 0 0 0 0 0 0 0 0 0 0 0 0 0
-588 -270 0 0 0 0 0 0 0 0 0 0 0 0 0 0 0 0 0 0 0 0 0 0 0 0 0 0 0 0 0 0 0 0 0 0 0 0 0 0 0 0 0
-554 0 0 0 0 0 0 0 0 0 0 0 0 0 0 0 0 0 0 0 0 0 0 0 0 0 0 0 0 0 0 0 0 0 0 0 0 0 0 0 0 -1 -1
0 0 0 0 0 0 0 0 0 0 0 0 0 0 0 0 0 0 0 0 0 0 0 0 0 0 0 0 0 0 0 0 0 0 0 0 0 0 0 -1 0 0 -1
0 0 0 0 0 0 0 0 0 0 0 0 0 0 0 0 0 0 0 0 0 0 0 0 0 0 0 0 0 0 0 0 0 0 0 0 0 0 0 0 0 0 0
0 0 0 0 0 0 0 0 0 0 0 0 0 0 0 0 0 0 0 0 0 0 0 0 0 0 0 0 0 0 0 0 0 0 0 0 0 0 0 0 0 0 0
0 0 0 0 0 0 0 0 0 0 0 0 0 0 0 0 0 0 0 0 0 0 0 0 0 0 0 0 0 0 0 0 0 0 0 0 0 0 0 0 0 0 -1
0 0 0 0 0 0 0 0 0 0 0 0 0 0 0 0 0 0 0 0 0 0 0 0 0 0 0 0 0 0 0 0 0 0 0 0 0 0 0 0 0 0 -1
0 0 0 0 0 0 0 0 0 0 0 0 0 0 0 0 0 0 0 0 0 0 0 0 0 0 0 0 0 0 0 0 0 0 0 0 0 0 0 0 0 0 0
0 0 0 0 0 0 0 0 0 0 0 0 0 0 0 0 0 0 0 0 0 0 0 0 0 0 0 0 0 0 0 0 0 0 0 0 0 0 0 0 0 0 0
0 0 0 0 0 0 0 0 0 0 0 0 0 0 0 0 0 0 0 0 0 0 0 0 0 0 0 0 0 0 0 0 0 0 0 0 0 0 0 0 0 0 0
0 0 0 0 0 0 0 0 0 0 0 0 0 0 0 0 0 0 0 0 0 0 0 0 0 0 0 0 0 0 0 0 0 0 0 0 0 0 0 0 0 0 0
0 0 0 0 0 0 0 0 0 0 0 0 0 0 0 0 0 0 0 0 0 0 0 0 0 0 0 0 0 0 0 0 0 0 0 0 0 0 0 0 0 0 0
0 0 0 0 0 0 0 0 0 0 0 0 0 0 0 0 0 0 0 0 0 0 0 0 0 0 0 0 0 0 0 0 0 0 0 0 0 0 0 0 0 0 0
0 0 0 0 0 0 0 0 0 0 0 0 0 0 0 0 0 0 0 0 0 0 0 0 0 0 0 0 0 0 0 0 0 0 0 0 0 0 0 0 0 0 0
0 0 0 0 0 0 0 0 0 0 0 0 0 0 0 0 0 0 0 0 0 0 0 0 0 0 0 0 0 0 0 0 0 0 0 0 0 0 0 0 0 0 0
0 0 0 0 0 0 0 0 0 0 0 0 0 0 0 0 0 0 0 0 0 0 0 0 0 0 0 0 0 0 0 0 0 0 0 0 0 0 0 0 0 0 0
0 0 0 0 0 0 0 0 0 0 0 0 0 0 0 0 0 0 0 0 0 0 0 0 0 0 0 0 0 0 0 0 0 0 0 0 0 0 0 0 0 0 -1
0 0 0 0 0 0 0 0 0 0 0 0 0 0 0 0 0 0 0 0 0 0 0 0 0 0 0 0 0 0 0 0 0 0 0 0 0 0 0 0 0 -1 0
0 0 0 0 0 0 0 0 0 0 0 0 0 0 0 0 0 0 0 0 0 0 0 0 0 0 0 0 0 0 0 0 0 0 0 0 0 0 0 0 0 0 0
0 0 0 0 0 0 0 0 0 0 0 0 0 0 0 0 0 0 0 0 0 0 0 0 0 0 0 0 0 0 0 0 0 0 0 0 0 0 0 0 0 0 0
Wind_Speed
18 16 15 15 12 10 12 14 9 7 8 9 8 8 7 8 6 8 7 7 9 7 5 7 5 5 4 3 3 2 3 3 4 2 3 2 3 5 6 3 6 5 6
17 18 18 16 16 16 16 18 15 15 12 10 8 9 9 9 9 11 10 9 9 8 8 8 6 5 6 4 3 4 2 2 1 5 1 3 4 5 6 6 6 5 6
18 19 18 18 18 21 20 17 16 15 14 15 13 10 9 10 10 9 9 8 7 7 8 8 9 8 6 4 3 2 1 1 1 2 4 3 4 3 4 4 4 5 5
19 19 19 19 21 19 15 16 15 15 17 15 10 11 10 9 9 8 8 7 6 6 8 8 9 7 6 5 3 2 2 2 3 3 3 2 1 4 3 6 9 6 8
16 17 20 18 15 12 12 12 12 11 12 8 8 7 8 9 7 9 9 8 8 7 7 7 7 6 9 5 3 3 2 1 2 3 3 3 3 3 4 3 7 9 10
16 17 13 9 9 9 8 8 8 7 7 7 8 10 9 5 10 11 10 8 7 8 7 6 7 10 11 12 11 8 6 3 1 1 1 3 4 4 3 5 8 10 12
11 9 9 8 9 9 9 9 8 9 10 9 9 9 8 6 13 13 11 7 7 7 8 8 7 7 7 6 8 8 6 3 1 2 3 3 4 3 5 8 9 10 12
8 8 9 10 10 10 11 9 8 7 9 8 8 8 8 6 11 12 12 8 8 7 7 7 8 7 6 5 5 4 1 1 2 2 4 5 6 6 6 8 10 13 13
9 9 9 10 11 10 10 10 8 9 7 6 6 7 7 6 13 14 12 9 9 9 8 7 6 6 8 9 3 2 3 3 2 7 10 14 15 16 14 8 9 9 12
10 9 10 9 10 8 8 8 4 6 7 8 8 7 9 8 12 13 11 7 8 6 6 7 8 7 7 4 2 1 2 3 4 5 5 7 9 9 14 5 7 9 10
8 9 8 8 8 9 8 7 7 8 10 10 10 9 11 10 9 13 11 6 6 5 4 4 3 6 4 3 4 2 1 3 4 4 5 5 5 4 4 5 6 7 10
10 9 9 9 7 7 10 8 9 10 11 9 10 9 8 9 14 16 17 13 9 5 4 3 2 4 4 4 4 5 7 3 1 3 4 5 5 6 6 7 10 10 10
12 10 10 10 8 7 9 9 8 9 9 8 7 7 7 6 7 13 14 13 10 5 4 3 4 4 5 4 5 6 4 2 2 3 5 5 6 7 10 10 9 11 13
13 11 9 11 10 9 7 6 7 7 7 7 7 7 6 6 4 3 4 4 6 4 4 4 3 4 5 3 3 3 3 3 4 5 6 7 7 7 8 8 10 10 11
13 11 10 9 10 11 10 6 6 5 4 7 5 7 7 5 4 5 4 3 2 3 3 2 2 2 2 1 1 3 3 4 5 5 6 7 7 8 8 8 9 10 10
12 9 8 8 8 8 10 11 19 17 19 18 15 11 7 12 11 9 7 5 7 7 3 2 1 0 1 2 2 3 4 5 5 6 6 6 8 8 9 9 8 9 11
13 11 9 9 8 8 8 8 10 13 19 19 18 17 16 11 9 8 6 5 6 5 2 3 2 1 1 2 2 3 4 4 7 5 5 6 7 7 9 9 8 9 11
14 15 10 8 8 8 7 7 6 6 6 5 10 11 12 10 8 7 5 4 2 3 3 3 2 1 1 3 3 4 5 5 5 5 5 5 5 7 8 9 9 10 11
12 10 9 8 8 8 7 7 5 4 4 5 5 5 7 9 7 5 4 1 2 2 1 1 2 1 2 3 2 3 3 4 4 3 4 5 4 6 7 8 10 13 14
12 15 11 7 7 7 6 5 4 4 4 3 3 3 2 3 2 1 1 1 2 1 0 1 1 1 1 2 2 3 3 3 3 4 4 4 4 7 8 9 10 10 11
8 9 11 8 7 6 6 6 6 5 4 4 4 4 4 1 1 1 2 2 1 1 2 2 2 1 1 3 3 3 4 4 5 5 5 6 6 8 8 9 10 11 11
8 8 8 7 6 6 6 6 6 5 5 4 3 4 7 4 4 4 4 4 3 4 3 2 2 3 2 3 3 3 4 5 5 5 6 6 7 8 9 9 10 11 11
8 8 8 7 6 6 6 5 4 4 5 5 5 5 5 4 3 4 3 3 3 2 3 2 2 3 3 3 3 4 5 6 6 6 6 8 8 9 8 9 10 11 11
8 8 7 6 6 6 6 6 5 6 5 4 3 3 2 2 2 3 2 3 2 2 2 3 3 5 5 5 4 4 6 6 4 7 8 8 8 10 9 10 10 13 12
7 7 7 7 6 6 6 6 5 4 4 3 2 2 2 2 2 3 3 1 2 2 4 4 3 5 8 8 8 9 7 7 7 8 7 8 10 12 11 10 11 12 14
8 7 6 5 5 5 5 4 3 3 3 2 2 2 2 3 2 1 2 3 3 3 5 4 5 9 9 7 9 9 8 10 9 12 8 7 8 8 9 11 14 11 14
Wind_Direction
214 210 212 217 215 218 225 236 204 162 173 200 193 195 185 215 188 194 200 190 190 169 160 180 172 133 146 164 123 170 175 178 243 267 231 280 283 283 286 266 250 247 252
208 209 209 208 199 201 206 205 180 183 184 182 200 221 176 185 193 201 196 186 184 170 172 161 145 151 143 153 151 178 189 224 223 289 271 263 242 266 258 274 267 235 227
207 207 206 205 205 211 222 213 199 202 189 194 209 217 201 197 194 192 189 168 164 168 164 160 162 158 151 148 163 180 154 356 226 221 277 247 259 280 291 274 263 264 255
205 205 206 203 208 217 219 219 208 200 199 204 197 180 185 182 184 176 163 155 156 162 161 155 161 157 148 154 140 77 31 338 296 257 248 270 282 291 266 302 300 293 288
198 203 208 208 206 204 201 198 202 201 200 181 169 154 160 164 165 170 165 156 157 157 150 149 130 114 90 104 130 96 88 62 348 329 329 339 285 309 311 312 298 298 287
192 200 188 167 163 172 168 158 150 151 142 147 144 145 152 161 166 152 144 150 151 150 144 111 104 104 104 102 98 89 84 82 324 251 242 266 284 299 306 304 304 299 296
181 171 172 156 162 151 152 148 150 143 135 133 138 144 139 131 152 152 134 139 138 132 133 130 122 111 105 103 83 72 66 35 340 244 268 275 285 272 288 298 284 275 278
151 148 142 144 140 139 141 140 127 135 130 130 123 124 129 139 142 130 120 114 108 104 102 102 112 110 101 119 79 51 24 274 273 254 236 254 251 266 250 267 282 291 287
139 139 136 143 144 147 142 136 126 120 114 116 121 122 122 118 130 125 114 107 100 92 90 93 107 115 90 63 72 353 337 322 314 326 323 316 315 316 310 305 298 298 294
147 138 135 135 134 125 118 114 81 88 100 93 82 76 98 104 114 115 112 113 107 102 86 77 80 80 61 35 96 79 344 331 342 327 318 316 311 301 315 351 334 306 298
119 114 113 110 109 107 97 98 99 101 94 90 84 69 70 70 74 93 91 100 111 104 101 89 54 34 14 23 57 97 6 32 347 323 307 301 290 294 292 295 278 278 281
111 101 98 95 99 100 106 103 104 109 107 99 94 77 62 65 73 77 82 85 95 106 106 100 60 16 25 40 67 13 12 21 326 312 303 300 308 304 299 295 290 278 267
107 105 101 94 89 94 111 110 105 113 117 115 113 111 103 83 76 89 89 87 85 98 112 102 65 61 76 70 28 11 29 9 327 319 314 314 312 305 309 306 300 292 286
108 100 93 91 82 69 65 79 104 117 124 129 132 128 122 111 96 71 83 89 106 100 93 72 69 80 69 50 25 20 15 356 339 320 319 313 307 316 315 313 311 315 311
99 98 92 88 90 85 66 59 77 44 108 140 129 130 128 116 115 117 114 91 101 130 104 86 65 55 41 4 19 353 1 349 334 330 317 315 317 319 314 316 312 313 307
101 95 99 103 102 102 102 88 70 82 88 94 103 110 98 115 111 104 108 105 95 115 89 109 104 53 13 342 352 341 343 333 328 318 315 314 317 314 309 314 307 313 306
110 112 107 106 107 109 107 108 106 78 86 93 101 108 112 115 109 106 108 124 117 110 121 126 135 150 243 342 339 337 321 327 323 306 301 307 303 299 310 309 311 312 304
92 93 95 95 95 94 96 100 111 124 126 115 112 120 116 99 76 61 42 96 98 87 120 137 150 130 342 333 331 325 320 310 302 295 293 295 286 300 308 307 311 309 303
78 74 74 76 75 77 77 80 86 93 108 127 132 112 103 84 75 68 84 138 145 137 129 128 121 68 346 328 324 287 280 282 270 272 278 284 275 294 295 302 300 303 301
70 74 73 72 72 75 75 79 75 79 74 69 90 98 99 71 66 47 85 106 99 117 163 119 67 18 357 322 283 276 281 278 279 292 282 264 272 292 294 302 298 303 300
73 71 74 70 65 63 63 68 67 59 63 65 68 56 60 45 33 38 87 96 48 56 69 35 30 16 306 289 298 295 295 292 293 287 287 290 294 295 300 295 294 295 295
69 70 69 67 63 62 66 62 61 64 58 64 61 65 52 48 43 43 47 32 36 44 34 44 356 335 318 308 297 280 283 273 271 272 285 292 304 301 298 297 298 296 295
67 71 70 67 68 72 65 65 64 60 65 55 56 55 53 50 51 51 54 31 22 39 22 14 320 309 304 291 276 258 271 277 279 289 310 306 298 299 298 296 297 296 298
62 62 68 66 56 61 63 57 56 59 66 66 60 59 61 72 66 52 26 3 36 353 333 322 300 290 296 288 279 277 273 278 313 306 290 297 294 299 297 293 292 297 297
58 60 60 57 54 53 57 53 47 45 44 37 19 26 42 35 37 0 345 336 317 304 300 299 287 286 291 292 290 290 286 324 301 298 298 294 288 289 289 290 299 298 297
62 61 59 58 54 56 57 56 44 32 22 1 12 10 21 11 360 315 275 286 278 281 296 291 293 300 301 295 291 302 326 313 306 300 302 289 289 293 293 297 302 300 299